Location: Pedholt
(56.0260°N, 10.2097°E)
Time: 20:31:51
(UTC+00:00)

SR - Pass Details

Date: 27 July 2021
Orbit: 581 x 873 km, 66.7° (Epoch: 27 September)

Event Time Altitude Azimuth Distance (km) Brightness Sun altitude
Rises 13:05:57 0° 311° (NW) 3,268 ? 48.5°
Reaches altitude 10° 13:08:36 10° 319° (NW) 2,290 ? 48.3°
Maximum altitude 13:13:32 42° 30° (NNE) 1,020 ? 47.9°
Drops below altitude 10° 13:18:03 10° 101° (E) 2,098 ? 47.5°
Sets 13:20:23 0° 109° (ESE) 2,964 ? 47.3°
